| time (UTC) | temp C | wind direction | speed KPH | gust KPH | rain 1hr cm | rain 24hr cm | rain mn cm | humidity % | barometer mb |
| 20260505100016 | -17 | 0.0 | 0.0 | 0.00 | 0.00 | 0.00 | 1009.3 | ||
| 20260505094503 | 5 | 251 | 0.0 | 0.0 | 0.00 | 0.00 | 0.00 | 100 | 1009.2 |
| 20260505093059 | -67 | 251 | 0.0 | 0.0 | 0.00 | 0.00 | 0.00 | 89 | 1009.1 |
| 20260505091609 | -67 | 248 | 0.0 | 0.0 | 0.00 | 0.00 | 0.00 | 89 | 1008.8 |
| 20260505090504 | 3 | 189 | 0.0 | 0.0 | 0.00 | 0.00 | 0.00 | 92 | 1007.0 |
| 20260505090048 | 6 | 251 | 0.0 | 0.0 | 0.00 | 0.00 | 0.00 | 89 | 1009.1 |
| 20260505084543 | -67 | 248 | 0.0 | 0.0 | 0.00 | 0.00 | 0.00 | 89 | 1009.2 |
| 20260505083504 | 4 | 189 | 0.0 | 1.6 | 0.00 | 0.00 | 0.00 | 92 | 1007.0 |
| 20260505083039 | -67 | 248 | 0.0 | 0.0 | 0.00 | 0.00 | 0.00 | 89 | 1009.3 |
| 20260505083004 | 4 | 189 | 0.0 | 0.0 | 0.00 | 0.00 | 0.00 | 91 | 1007.0 |
| 20260505081505 | -67 | 248 | 0.0 | 0.0 | 0.00 | 0.00 | 0.00 | 89 | 1009.5 |
| 20260505080504 | 5 | 189 | 0.0 | 0.0 | 0.00 | 0.00 | 0.00 | 90 | 1007.0 |
| 20260505080113 | -17 | 0.0 | 0.0 | 0.00 | 0.00 | 0.00 | 1009.4 | ||
| 20260505074552 | -67 | 264 | 0.0 | 0.0 | 0.00 | 0.00 | 0.00 | 88 | 1009.5 |
| 20260505073507 | 5 | 189 | 0.0 | 0.0 | 0.00 | 0.00 | 0.00 | 89 | 1006.9 |
| 20260505073049 | -67 | 217 | 0.0 | 0.0 | 0.00 | 0.00 | 0.00 | 86 | 1009.5 |
| 20260505071554 | -67 | 217 | 0.0 | 0.0 | 0.00 | 0.00 | 0.00 | 86 | 1009.4 |
| 20260505070506 | 6 | 189 | 0.0 | 0.0 | 0.00 | 0.00 | 0.00 | 88 | 1006.9 |
| 20260505070045 | -67 | 217 | 0.0 | 0.0 | 0.00 | 0.00 | 0.00 | 85 | 1009.4 |
| 20260505070006 | 7 | 189 | 0.0 | 0.0 | 0.00 | 0.00 | 0.00 | 89 | 1006.9 |
| 20260505064531 | 8 | 275 | 0.0 | 0.0 | 0.00 | 0.00 | 0.00 | 84 | 1009.2 |
| 20260505063506 | 7 | 189 | 0.0 | 0.0 | 0.00 | 0.00 | 0.00 | 90 | 1006.8 |
| 20260505063027 | 7 | 283 | 0.0 | 0.0 | 0.00 | 0.00 | 0.00 | 85 | 1009.2 |
| 20260505063006 | 7 | 189 | 0.0 | 4.8 | 0.00 | 0.00 | 0.00 | 90 | 1006.8 |
| 20260505061527 | -67 | 264 | 0.0 | 8.0 | 0.00 | 0.00 | 0.00 | 86 | 1009.1 |
| 20260505060506 | 7 | 189 | 0.0 | 1.6 | 0.00 | 0.00 | 0.00 | 92 | 1006.8 |
| 20260505060019 | -67 | 283 | 0.0 | 0.0 | 0.00 | 0.00 | 0.00 | 87 | 1009.1 |
| 20260505060006 | 7 | 188 | 0.0 | 9.7 | 0.00 | 0.00 | 0.00 | 92 | 1006.9 |
| 20260505054544 | 7 | 231 | 0.0 | 0.0 | 0.00 | 0.00 | 0.00 | 87 | 1009.0 |
| 20260505053506 | 7 | 199 | 1.6 | 4.8 | 0.00 | 0.00 | 0.00 | 93 | 1006.9 |
| 20260505053043 | -17 | 0.0 | 0.0 | 0.00 | 0.00 | 0.00 | 1009.0 | ||
| 20260505051553 | -17 | 0.0 | 0.0 | 0.00 | 0.00 | 0.00 | 1009.1 | ||
| 20260505050505 | 7 | 210 | 3.2 | 8.0 | 0.00 | 0.00 | 0.00 | 94 | 1006.5 |
| 20260505041510 | -17 | 0.0 | 0.0 | 0.00 | 0.00 | 0.00 | 1008.5 | ||
| 20260505040007 | 6 | 248 | 0.0 | 0.0 | 0.00 | 0.00 | 0.00 | 86 | 1008.5 |
| 20260505034501 | -67 | 248 | 0.0 | 0.0 | 0.00 | 0.03 | 0.00 | 86 | 1008.3 |
| 20260505033058 | 7 | 257 | 0.0 | 0.0 | 0.00 | 0.03 | 0.00 | 86 | 1008.4 |
| 20260505031555 | -67 | 251 | 0.0 | 0.0 | 0.00 | 0.03 | 0.00 | 85 | 1008.2 |
| 20260505030046 | -67 | 251 | 0.0 | 0.0 | 0.00 | 0.03 | 0.00 | 83 | 1008.3 |
| 20260505030006 | 8 | 285 | 0.0 | 0.0 | 0.00 | 0.05 | 0.00 | 85 | 1005.9 |
| 20260505024548 | 6 | 255 | 0.0 | 0.0 | 0.00 | 0.03 | 0.00 | 83 | 1008.2 |
| 20260505023505 | 8 | 285 | 1.6 | 3.2 | 0.00 | 0.05 | 0.05 | 85 | 1005.9 |
| 20260505023037 | -67 | 251 | 0.0 | 0.0 | 0.00 | 0.03 | 0.00 | 82 | 1008.3 |
| 20260505023006 | 8 | 285 | 0.0 | 8.0 | 0.00 | 0.05 | 0.05 | 85 | 1005.9 |
| 20260505021533 | -67 | 248 | 0.0 | 0.0 | 0.00 | 0.03 | 0.00 | 82 | 1008.2 |
| 20260505020026 | 7 | 256 | 0.0 | 0.0 | 0.00 | 0.03 | 0.00 | 81 | 1008.0 |
| 20260505020006 | 8 | 236 | 1.6 | 8.0 | 0.00 | 0.05 | 0.05 | 84 | 1005.9 |
| 20260505014522 | -67 | 203 | 0.0 | 0.0 | 0.00 | 0.03 | 0.00 | 81 | 1007.9 |
| 20260505013505 | 8 | 259 | 0.0 | 3.2 | 0.00 | 0.05 | 0.05 | 84 | 1005.7 |
| 20260505013017 | -17 | 0.0 | 0.0 | 0.00 | 0.03 | 0.00 | 1007.6 | ||
| 20260505011516 | -17 | 0.0 | 0.0 | 0.00 | 0.03 | 0.00 | 1007.6 | ||
| 20260505010006 | -17 | 0.0 | 0.0 | 0.00 | 0.03 | 0.00 | 1007.1 | ||
| 20260505004504 | -67 | 269 | 0.0 | 9.7 | 0.00 | 0.05 | 0.00 | 100 | 1007.1 |
| 20260505003059 | -67 | 176 | 0.0 | 0.0 | 0.00 | 0.05 | 0.00 | 78 | 1006.7 |
| 20260505003007 | 8 | 297 | 3.2 | 9.7 | 0.00 | 0.13 | 0.05 | 81 | 1004.2 |
| 20260505001600 | -17 | 0.0 | 0.0 | 0.00 | 0.05 | 0.00 | 1006.3 | ||
| 20260505000506 | 9 | 287 | 3.2 | 12.9 | 0.00 | 0.13 | 0.05 | 80 | 1003.6 |
| 20260505000048 | -67 | 264 | 0.0 | 8.0 | 0.00 | 0.05 | 0.00 | 100 | 1006.1 |
| 20260504234541 | -17 | 0.0 | 0.0 | 0.00 | 0.13 | 0.05 | 1006.0 | ||
| 20260504233043 | -17 | 0.0 | 0.0 | 0.00 | 0.13 | 0.05 | 1005.8 | ||
| 20260504231530 | -17 | 0.0 | 0.0 | 0.00 | 0.13 | 0.05 | 1005.4 | ||
| 20260504230505 | 10 | 283 | 3.2 | 16.1 | 0.00 | 0.20 | 0.05 | 76 | 1003.2 |
| 20260504230024 | -67 | 225 | 0.0 | 0.0 | 0.00 | 0.13 | 0.05 | 100 | 1005.1 |
| 20260504230005 | 10 | 285 | 8.0 | 19.3 | 0.00 | 0.20 | 0.05 | 76 | 1003.2 |
| 20260504224521 | -67 | 176 | 0.0 | 0.0 | 0.00 | 0.20 | 0.05 | 100 | 1004.9 |
| 20260504223505 | 11 | 282 | 9.7 | 20.9 | 0.00 | 0.25 | 0.05 | 74 | 1003.0 |
| 20260504223015 | -17 | 0.0 | 0.0 | 0.00 | 0.20 | 0.05 | 1004.7 | ||
| 20260504223006 | 11 | 274 | 11.3 | 32.2 | 0.00 | 0.28 | 0.05 | 73 | 1003.0 |
| 20260504221511 | 10 | 275 | 0.0 | 16.1 | 0.00 | 0.20 | 0.05 | 70 | 1004.4 |
| 20260504220505 | 11 | 250 | 16.1 | 29.0 | 0.00 | 0.33 | 0.05 | 72 | 1002.6 |
| 20260504220039 | 10 | 137 | 1.6 | 16.1 | 0.00 | 0.20 | 0.05 | 69 | 1004.1 |
| 20260504214532 | 11 | 293 | 0.0 | 11.3 | 0.00 | 0.28 | 0.05 | 69 | 1004.1 |
| 20260504213505 | 11 | 276 | 11.3 | 22.5 | 0.00 | 0.36 | 0.05 | 71 | 1002.6 |
| 20260504213058 | 11 | 293 | 0.0 | 14.5 | 0.00 | 0.28 | 0.05 | 68 | 1004.0 |
| 20260504211554 | 11 | 293 | 0.0 | 16.1 | 0.00 | 0.28 | 0.05 | 68 | 1004.0 |
| 20260504210059 | 11 | 228 | 1.6 | 20.9 | 0.00 | 0.28 | 0.05 | 68 | 1003.9 |
| 20260504204548 | 11 | 259 | 0.0 | 20.9 | 0.00 | 0.41 | 0.05 | 67 | 1003.9 |
| 20260504203505 | 11 | 270 | 11.3 | 24.1 | 0.00 | 0.48 | 0.05 | 69 | 1002.3 |
| 20260504203052 | 11 | 243 | 3.2 | 20.9 | 0.00 | 0.41 | 0.05 | 65 | 1003.8 |
| 20260504201533 | 11 | 229 | 0.0 | 11.3 | 0.00 | 0.41 | 0.05 | 66 | 1003.8 |
| 20260504200505 | 12 | 237 | 9.7 | 22.5 | 0.00 | 0.53 | 0.05 | 67 | 1002.3 |
| 20260504200100 | 11 | 216 | 4.8 | 27.4 | 0.00 | 0.41 | 0.05 | 65 | 1003.8 |
| 20260504200005 | 12 | 259 | 9.7 | 27.4 | 0.00 | 0.56 | 0.05 | 67 | 1002.3 |
| 20260504194602 | 11 | 262 | 0.0 | 27.4 | 0.00 | 0.61 | 0.05 | 66 | 1003.9 |
| 20260504193505 | 12 | 224 | 9.7 | 19.3 | 0.00 | 0.64 | 0.05 | 71 | 1002.3 |
| 20260504193049 | 11 | 250 | 1.6 | 16.1 | 0.00 | 0.61 | 0.05 | 65 | 1004.0 |
| 20260504191543 | 11 | 151 | 1.6 | 22.5 | 0.00 | 0.61 | 0.05 | 64 | 1003.9 |
| 20260504190505 | 11 | 190 | 6.4 | 16.1 | 0.00 | 0.74 | 0.05 | 70 | 1002.4 |
| 20260504190059 | 11 | 324 | 4.8 | 29.0 | 0.00 | 0.61 | 0.05 | 63 | 1004.0 |
| 20260504190004 | 12 | 216 | 9.7 | 40.2 | 0.00 | 0.76 | 0.05 | 68 | 1002.4 |
| 20260504184535 | 12 | 265 | 1.6 | 24.1 | 0.00 | 0.94 | 0.05 | 54 | 1003.9 |
| 20260504183505 | 13 | 258 | 8.0 | 25.7 | 0.00 | 0.89 | 0.05 | 57 | 1001.8 |
| 20260504183032 | 13 | 211 | 1.6 | 19.3 | 0.00 | 0.94 | 0.05 | 47 | 1003.8 |
| 20260504183005 | 13 | 286 | 11.3 | 35.4 | 0.00 | 0.89 | 0.05 | 55 | 1001.8 |
| 20260504181523 | 13 | 42 | 4.8 | 19.3 | 0.00 | 0.94 | 0.05 | 42 | 1003.7 |
| 20260504180505 | 15 | 258 | 9.7 | 29.0 | 0.00 | 1.04 | 0.05 | 43 | 1001.6 |
| 20260504180018 | 14 | 252 | 1.6 | 20.9 | 0.00 | 0.94 | 0.05 | 41 | 1003.4 |
| 20260504180005 | 15 | 263 | 4.8 | 32.2 | 0.00 | 1.07 | 0.05 | 45 | 1001.3 |
| 20260504174514 | 15 | 250 | 0.0 | 17.7 | 0.00 | 1.09 | 0.05 | 37 | 1003.2 |
| 20260504173505 | 15 | 272 | 9.7 | 20.9 | 0.00 | 1.12 | 0.05 | 39 | 1001.3 |
| 20260504173008 | 15 | 214 | 0.0 | 17.7 | 0.00 | 1.09 | 0.05 | 38 | 1003.0 |
| 20260504171501 | 15 | 269 | 0.0 | 20.9 | 0.00 | 1.09 | 0.05 | 38 | 1003.0 |
| 20260504140504 | 10 | 238 | 8.0 | 16.1 | 0.00 | 1.35 | 0.05 | 57 | 1003.0 |
| 20260504130504 | 8 | 267 | 8.0 | 20.9 | 0.00 | 1.52 | 0.05 | 68 | 1002.3 |